timestamp,wind_dir_avg,wind_spd_avg,wind_spd_max_dir,wind_spd_gust,battery_voltage,lat,long
2022-09-10 00:04:00+00:00,63.0,5.94,65.0,7.02,12.49,47.59359,-54.27349
2022-09-10 00:14:01+00:00,69.0,5.96,67.0,6.93,12.49,47.59359,-54.27349
2022-09-10 00:24:01+00:00,63.0,6.22,62.0,7.12,12.49,47.59359,-54.27349
2022-09-10 00:34:01+00:00,68.0,6.48,67.0,7.74,12.49,47.59359,-54.27349
2022-09-10 00:44:01+00:00,63.0,7.21,56.0,8.74,12.49,47.59359,-54.27349
2022-09-10 00:54:01+00:00,67.0,6.9,73.0,8.07,12.49,47.59359,-54.27349
2022-09-10 01:04:01+00:00,67.0,7.64,64.0,8.43,12.49,47.59359,-54.27349
2022-09-10 01:14:00+00:00,72.0,6.98,75.0,7.86,12.49,47.59359,-54.27349
2022-09-10 01:24:00+00:00,72.0,5.84,67.0,7.97,12.49,47.59359,-54.27349
2022-09-10 01:34:00+00:00,68.0,6.47,67.0,7.35,12.49,47.59359,-54.27349
2022-09-10 01:44:00+00:00,56.0,6.16,46.0,7.3,12.49,47.59359,-54.27349
2022-09-10 01:54:00+00:00,68.0,6.59,69.0,7.64,12.49,47.59359,-54.27349
2022-09-10 02:04:00+00:00,65.0,6.96,72.0,8.04,12.49,47.59359,-54.27349
2022-09-10 02:14:01+00:00,58.0,6.19,60.0,6.78,12.49,47.59359,-54.27349
2022-09-10 02:24:01+00:00,59.0,6.64,49.0,9.14,12.49,47.59359,-54.27349
2022-09-10 02:34:01+00:00,52.0,8.34,54.0,9.38,12.49,47.59359,-54.27349
2022-09-10 02:44:01+00:00,54.0,7.91,54.0,8.84,12.49,47.59359,-54.27349
2022-09-10 02:54:01+00:00,56.0,7.9,56.0,9.06,12.49,47.59359,-54.27349
2022-09-10 03:04:01+00:00,57.0,7.58,56.0,8.42,12.49,47.59359,-54.27349
2022-09-10 03:14:00+00:00,59.0,7.18,57.0,8.49,12.41,47.59359,-54.27349
2022-09-10 03:24:00+00:00,48.0,8.11,51.0,9.04,12.41,47.59359,-54.27349
2022-09-10 03:34:00+00:00,53.0,7.13,56.0,8.35,12.41,47.59359,-54.27349
2022-09-10 03:44:00+00:00,52.0,6.97,62.0,8.12,12.41,47.59359,-54.27349
2022-09-10 03:54:00+00:00,45.0,7.22,30.0,9.04,12.41,47.59359,-54.27349
2022-09-10 04:04:00+00:00,43.0,7.29,47.0,8.34,12.41,47.59359,-54.27349
2022-09-10 04:14:01+00:00,47.0,7.96,51.0,9.08,12.41,47.59359,-54.27349
2022-09-10 04:24:01+00:00,42.0,8.49,43.0,9.83,12.41,47.59359,-54.27349
2022-09-10 04:34:01+00:00,47.0,6.93,50.0,8.25,12.41,47.59359,-54.27349
2022-09-10 04:44:01+00:00,52.0,9.11,52.0,10.61,12.41,47.59359,-54.27349
2022-09-10 04:54:01+00:00,45.0,8.38,46.0,9.89,12.41,47.59359,-54.27349
2022-09-10 05:04:01+00:00,39.0,8.62,47.0,9.68,12.41,47.59359,-54.27349
2022-09-10 05:14:00+00:00,38.0,9.3,43.0,10.64,12.41,47.59359,-54.27349
2022-09-10 05:24:00+00:00,43.0,8.76,44.0,10.3,12.41,47.59359,-54.27349
2022-09-10 05:34:00+00:00,43.0,9.34,45.0,10.72,12.41,47.59359,-54.27349
2022-09-10 05:44:00+00:00,52.0,8.28,50.0,9.6,12.41,47.59359,-54.27349
2022-09-10 05:54:00+00:00,49.0,9.9,51.0,10.8,12.41,47.59359,-54.27349
2022-09-10 06:04:00+00:00,46.0,9.89,50.0,11.07,12.41,47.59359,-54.27349
2022-09-10 06:14:00+00:00,46.0,9.57,51.0,11.05,12.33,47.59359,-54.27349
2022-09-10 06:24:00+00:00,43.0,10.62,38.0,12.59,12.33,47.59359,-54.27349
2022-09-10 06:34:00+00:00,40.0,10.57,37.0,11.67,12.33,47.59359,-54.27349
2022-09-10 06:44:00+00:00,26.0,10.38,32.0,11.91,12.33,47.59359,-54.27349
2022-09-10 06:54:00+00:00,25.0,10.48,22.0,12.83,12.33,47.59359,-54.27349
2022-09-10 07:04:00+00:00,36.0,10.93,38.0,12.55,12.33,47.59359,-54.27349
2022-09-10 07:14:00+00:00,35.0,9.91,34.0,11.21,12.33,47.59359,-54.27349
2022-09-10 07:24:00+00:00,38.0,11.08,37.0,12.41,12.33,47.59359,-54.27349
2022-09-10 07:34:00+00:00,39.0,10.56,41.0,11.89,12.33,47.59359,-54.27349
2022-09-10 07:44:00+00:00,42.0,9.61,35.0,11.2,12.33,47.59359,-54.27349
2022-09-10 07:54:00+00:00,45.0,11.51,46.0,13.03,12.33,47.59359,-54.27349
2022-09-10 08:04:00+00:00,39.0,10.74,46.0,12.34,12.33,47.59359,-54.27349
2022-09-10 08:14:00+00:00,44.0,11.43,42.0,13.1,12.33,47.59359,-54.27349
2022-09-10 08:24:00+00:00,39.0,11.05,32.0,12.73,12.33,47.59359,-54.27349
2022-09-10 08:34:00+00:00,33.0,12.58,31.0,13.86,12.33,47.59359,-54.27349
2022-09-10 08:44:00+00:00,38.0,12.54,36.0,13.92,12.33,47.59359,-54.27349
2022-09-10 08:54:00+00:00,43.0,12.08,50.0,13.53,12.33,47.59359,-54.27349
2022-09-10 09:04:00+00:00,39.0,12.04,36.0,13.54,12.33,47.59359,-54.27349
2022-09-10 09:14:00+00:00,40.0,12.06,38.0,14.2,12.25,47.59359,-54.27349
2022-09-10 09:24:00+00:00,39.0,13.43,40.0,14.76,12.25,47.59359,-54.27349
2022-09-10 09:34:00+00:00,37.0,12.03,35.0,13.43,12.25,47.59359,-54.27349
2022-09-10 09:44:00+00:00,39.0,12.49,42.0,13.68,12.25,47.59359,-54.27349
2022-09-10 09:54:00+00:00,39.0,12.68,46.0,14.37,12.25,47.59359,-54.27349
2022-09-10 10:04:00+00:00,36.0,12.22,37.0,13.57,12.25,47.59359,-54.27349
2022-09-10 10:14:00+00:00,37.0,12.42,37.0,13.94,12.25,47.59359,-54.27349
2022-09-10 10:24:00+00:00,37.0,12.13,37.0,13.53,12.25,47.59359,-54.27349
2022-09-10 10:34:00+00:00,42.0,12.72,37.0,14.5,12.25,47.59359,-54.27349
2022-09-10 10:44:00+00:00,40.0,12.46,39.0,13.86,12.25,47.59359,-54.27349
2022-09-10 10:54:00+00:00,40.0,11.52,39.0,12.87,12.25,47.59359,-54.27349
2022-09-10 11:04:00+00:00,41.0,12.05,38.0,13.9,12.25,47.59359,-54.27349
2022-09-10 11:14:00+00:00,37.0,11.64,36.0,12.85,12.41,47.59359,-54.27349
2022-09-10 11:24:00+00:00,43.0,11.94,44.0,13.53,12.41,47.59359,-54.27349
2022-09-10 11:34:00+00:00,46.0,12.53,50.0,14.29,12.41,47.59359,-54.27349
2022-09-10 11:44:00+00:00,50.0,13.06,55.0,14.71,12.41,47.59359,-54.27349
2022-09-10 11:54:00+00:00,44.0,12.54,40.0,14.69,12.41,47.59359,-54.27349
2022-09-10 12:04:00+00:00,50.0,12.68,52.0,14.75,12.41,47.59359,-54.27349
2022-09-10 12:14:00+00:00,50.0,13.39,54.0,14.63,12.97,47.59359,-54.27349
2022-09-10 12:24:00+00:00,49.0,10.7,47.0,12.82,12.97,47.59359,-54.27349
2022-09-10 12:34:00+00:00,57.0,12.25,65.0,14.4,12.97,47.59359,-54.27349
2022-09-10 12:44:00+00:00,56.0,12.48,54.0,15.09,12.97,47.59359,-54.27349
2022-09-10 12:54:00+00:00,56.0,14.06,54.0,15.58,12.97,47.59359,-54.27349
2022-09-10 13:04:00+00:00,48.0,14.78,47.0,16.82,12.97,47.59359,-54.27349
2022-09-10 13:14:00+00:00,51.0,14.0,49.0,15.93,13.44,47.59359,-54.27349
2022-09-10 13:24:00+00:00,53.0,15.76,50.0,19.03,13.44,47.59359,-54.27349
2022-09-10 13:34:00+00:00,53.0,15.99,54.0,19.43,13.44,47.59359,-54.27349
2022-09-10 13:44:00+00:00,56.0,15.27,62.0,17.9,13.44,47.59359,-54.27349
2022-09-10 13:54:00+00:00,56.0,15.82,53.0,18.38,13.44,47.59359,-54.27349
2022-09-10 14:04:00+00:00,62.0,15.65,62.0,18.62,13.44,47.59359,-54.27349
2022-09-10 14:14:00+00:00,57.0,15.1,56.0,17.67,13.6,47.59359,-54.27349
2022-09-10 14:24:00+00:00,53.0,14.75,53.0,17.36,13.6,47.59359,-54.27349
2022-09-10 14:34:00+00:00,58.0,14.78,63.0,17.4,13.6,47.59359,-54.27349
2022-09-10 14:44:00+00:00,53.0,14.86,51.0,17.65,13.6,47.59359,-54.27349
2022-09-10 14:54:00+00:00,53.0,16.0,56.0,19.48,13.6,47.59359,-54.27349
2022-09-10 15:04:00+00:00,50.0,15.65,50.0,17.99,13.6,47.59359,-54.27349
2022-09-10 15:14:01+00:00,51.0,15.77,54.0,18.72,13.6,47.59359,-54.27349
2022-09-10 15:24:01+00:00,47.0,15.57,50.0,18.53,13.6,47.59359,-54.27349
2022-09-10 15:34:01+00:00,52.0,15.81,52.0,18.96,13.6,47.59359,-54.27349
2022-09-10 15:44:01+00:00,49.0,15.9,51.0,19.83,13.6,47.59359,-54.27349
2022-09-10 15:54:01+00:00,54.0,14.37,53.0,17.56,13.6,47.59359,-54.27349
2022-09-10 16:04:01+00:00,49.0,15.53,50.0,19.3,13.6,47.59359,-54.27349
2022-09-10 16:14:00+00:00,50.0,15.59,50.0,19.14,13.6,47.59359,-54.27349
2022-09-10 16:24:00+00:00,51.0,16.02,48.0,19.04,13.6,47.59359,-54.27349
2022-09-10 16:34:00+00:00,53.0,16.05,52.0,18.69,13.6,47.59359,-54.27349
2022-09-10 16:44:00+00:00,47.0,16.27,50.0,21.04,13.6,47.59359,-54.27349
2022-09-10 16:54:00+00:00,50.0,14.3,48.0,17.43,13.6,47.59359,-54.27349
2022-09-10 17:04:00+00:00,50.0,16.0,51.0,19.28,13.6,47.59359,-54.27349
2022-09-10 17:14:01+00:00,47.0,15.29,48.0,19.78,13.76,47.59359,-54.27349
2022-09-10 17:24:01+00:00,46.0,15.76,43.0,18.61,13.76,47.59359,-54.27349
2022-09-10 17:34:01+00:00,48.0,16.31,48.0,20.58,13.76,47.59359,-54.27349
2022-09-10 17:44:01+00:00,43.0,15.01,38.0,17.71,13.76,47.59359,-54.27349
2022-09-10 17:54:01+00:00,49.0,15.27,51.0,18.99,13.76,47.59359,-54.27349
2022-09-10 18:04:01+00:00,41.0,15.69,37.0,19.81,13.76,47.59359,-54.27349
2022-09-10 18:14:01+00:00,42.0,17.22,49.0,21.66,13.68,47.59359,-54.27349
2022-09-10 18:24:01+00:00,50.0,16.93,51.0,20.39,13.68,47.59359,-54.27349
2022-09-10 18:34:01+00:00,45.0,15.45,50.0,18.76,13.68,47.59359,-54.27349
2022-09-10 18:44:01+00:00,45.0,16.54,46.0,20.9,13.68,47.59359,-54.27349
2022-09-10 18:54:01+00:00,45.0,16.81,50.0,21.37,13.68,47.59359,-54.27349
2022-09-10 19:04:01+00:00,47.0,16.64,50.0,19.53,13.68,47.59359,-54.27349
2022-09-10 19:14:00+00:00,50.0,17.75,51.0,21.54,13.68,47.59359,-54.27349
2022-09-10 19:24:00+00:00,46.0,18.08,49.0,22.3,13.68,47.59359,-54.27349
2022-09-10 19:34:00+00:00,44.0,16.72,45.0,18.87,13.68,47.59359,-54.27349
2022-09-10 19:44:00+00:00,46.0,17.93,46.0,22.88,13.68,47.59359,-54.27349
2022-09-10 19:54:00+00:00,44.0,17.9,45.0,22.57,13.68,47.59359,-54.27349
2022-09-10 20:04:00+00:00,44.0,18.21,46.0,22.01,13.68,47.59359,-54.27349
2022-09-10 20:14:00+00:00,49.0,18.96,50.0,22.16,13.44,47.59359,-54.27349
2022-09-10 20:24:00+00:00,50.0,17.35,49.0,20.54,13.44,47.59359,-54.27349
2022-09-10 20:34:00+00:00,45.0,18.77,47.0,22.02,13.44,47.59359,-54.27349
2022-09-10 20:44:00+00:00,42.0,16.57,42.0,21.26,13.44,47.59359,-54.27349
2022-09-10 20:54:00+00:00,47.0,19.29,49.0,22.6,13.44,47.59359,-54.27349
2022-09-10 21:04:00+00:00,52.0,17.16,43.0,20.9,13.44,47.59359,-54.27349
2022-09-10 21:14:00+00:00,44.0,16.59,47.0,22.47,13.13,47.59359,-54.27349
2022-09-10 21:24:00+00:00,43.0,17.0,50.0,20.73,13.13,47.59359,-54.27349
2022-09-10 21:34:00+00:00,45.0,17.32,45.0,22.91,13.13,47.59359,-54.27349
2022-09-10 21:44:00+00:00,46.0,18.67,49.0,22.52,13.13,47.59359,-54.27349
2022-09-10 21:54:00+00:00,39.0,18.21,48.0,22.47,13.13,47.59359,-54.27349
2022-09-10 22:04:00+00:00,45.0,18.87,56.0,22.74,13.13,47.59359,-54.27349
2022-09-10 22:14:01+00:00,46.0,20.35,45.0,23.76,12.65,47.59359,-54.27349
2022-09-10 22:24:01+00:00,43.0,17.37,42.0,20.33,12.65,47.59359,-54.27349
2022-09-10 22:34:01+00:00,36.0,17.76,42.0,21.8,12.65,47.59359,-54.27349
2022-09-10 22:44:01+00:00,38.0,17.1,47.0,21.7,12.65,47.59359,-54.27349
2022-09-10 22:54:01+00:00,36.0,16.9,46.0,20.87,12.65,47.59359,-54.27349
2022-09-10 23:04:01+00:00,37.0,19.2,42.0,22.92,12.65,47.59359,-54.27349
2022-09-10 23:14:01+00:00,38.0,18.85,49.0,23.2,12.49,47.59359,-54.27349
2022-09-10 23:24:01+00:00,37.0,19.05,43.0,23.38,12.49,47.59359,-54.27349
2022-09-10 23:34:01+00:00,40.0,16.95,49.0,22.08,12.49,47.59359,-54.27349
2022-09-10 23:44:01+00:00,41.0,19.53,43.0,24.68,12.49,47.59359,-54.27349
2022-09-10 23:54:01+00:00,42.0,17.0,47.0,20.91,12.49,47.59359,-54.27349
